SVA1505 OERK-OEDF

Flight info

Callsign SVA1505
Flight time 0h 43m
Altitude 31000
Route ALTAV1K ALTAV H976 MUSRI L604 UMENA UMENA2J
Aircraft A320/M-SDE3FGHIRWY/LB1

Departure

Time 2026-04-15 10:33
Airport King Khalid International Airport (OERK)

Arrival

Time 2026-04-15 11:16
Airport King Fahd International Airport (OEDF)
Time Latitude Longitude Altitude Speed Heading
2026-04-15 10:19 24.96194 46.70336 2030 ft 0 kts 236°
2026-04-15 10:21 24.96196 46.70340 2030 ft 2 kts 236°
2026-04-15 10:22 24.96205 46.70355 2038 ft 2 kts 236°
2026-04-15 10:22 24.96215 46.70371 2036 ft 2 kts 236°
2026-04-15 10:22 24.96224 46.70386 2040 ft 2 kts 235°
2026-04-15 10:22 24.96237 46.70397 2037 ft 2 kts 165°
2026-04-15 10:23 24.96242 46.70396 2040 ft 0 kts 141°
2026-04-15 10:24 24.96238 46.70399 2037 ft 5 kts 141°
2026-04-15 10:24 24.96182 46.70460 2030 ft 16 kts 123°
2026-04-15 10:24 24.96151 46.70509 2033 ft 0 kts 133°
2026-04-15 10:25 24.96144 46.70516 2037 ft 2 kts 135°
2026-04-15 10:25 24.96133 46.70526 2038 ft 2 kts 144°
2026-04-15 10:25 24.96131 46.70526 2037 ft 2 kts 149°
2026-04-15 10:26 24.96120 46.70533 2037 ft 2 kts 149°
2026-04-15 10:26 24.96105 46.70543 2037 ft 3 kts 149°
2026-04-15 10:26 24.96085 46.70556 2035 ft 6 kts 150°
2026-04-15 10:26 24.96013 46.70599 2030 ft 17 kts 151°
2026-04-15 10:27 24.95935 46.70648 2030 ft 10 kts 150°
2026-04-15 10:27 24.95863 46.70701 2031 ft 13 kts 134°
2026-04-15 10:27 24.95874 46.70800 2036 ft 9 kts 65°
2026-04-15 10:27 24.95851 46.70878 2031 ft 16 kts 147°
2026-04-15 10:28 24.95730 46.70957 2032 ft 24 kts 149°
2026-04-15 10:28 24.95564 46.71061 2034 ft 31 kts 152°
2026-04-15 10:28 24.95417 46.71154 2035 ft 21 kts 149°
2026-04-15 10:28 24.95278 46.71244 2038 ft 26 kts 150°
2026-04-15 10:29 24.95110 46.71350 2032 ft 30 kts 150°
2026-04-15 10:29 24.94920 46.71468 2034 ft 31 kts 150°
2026-04-15 10:29 24.94782 46.71568 2035 ft 15 kts 122°
2026-04-15 10:29 24.94788 46.71674 2037 ft 15 kts 109°
2026-04-15 10:30 24.94710 46.71740 2036 ft 16 kts 150°
2026-04-15 10:30 24.94596 46.71814 2036 ft 22 kts 149°
2026-04-15 10:30 24.94463 46.71898 2035 ft 23 kts 150°
2026-04-15 10:30 24.94330 46.71980 2035 ft 19 kts 149°
2026-04-15 10:31 24.94311 46.72080 2033 ft 15 kts 60°
2026-04-15 10:31 24.94335 46.72125 2038 ft 0 kts 59°
2026-04-15 10:31 24.94341 46.72136 2038 ft 6 kts 59°
2026-04-15 10:32 24.94387 46.72220 2037 ft 19 kts 58°
2026-04-15 10:32 24.94501 46.72217 2033 ft 25 kts 329°
2026-04-15 10:32 24.94701 46.72087 2037 ft 54 kts 330°
2026-04-15 10:32 24.95363 46.71672 2036 ft 163 kts 330°
2026-04-15 10:33 24.96594 46.70888 2075 ft 242 kts 330°
2026-04-15 10:33 24.98166 46.69897 2950 ft 268 kts 330°
2026-04-15 10:33 24.99871 46.68899 4367 ft 282 kts 335°
2026-04-15 10:33 25.01685 46.68140 5930 ft 276 kts 346°
2026-04-15 10:34 25.03566 46.67652 6970 ft 284 kts 352°
2026-04-15 10:34 25.05468 46.67867 7204 ft 275 kts 24°
2026-04-15 10:34 25.07051 46.69023 7443 ft 273 kts 40°
2026-04-15 10:34 25.08527 46.70348 7685 ft 273 kts 38°
2026-04-15 10:35 25.10033 46.71635 7920 ft 275 kts 34°
2026-04-15 10:35 25.11665 46.72709 8165 ft 276 kts 27°
2026-04-15 10:35 25.13394 46.73652 8408 ft 277 kts 25°
2026-04-15 10:35 25.15147 46.74545 8654 ft 278 kts 24°
2026-04-15 10:36 25.16916 46.75440 8905 ft 280 kts 24°
2026-04-15 10:36 25.18685 46.76356 9151 ft 281 kts 25°
2026-04-15 10:36 25.20452 46.77292 9402 ft 282 kts 25°
2026-04-15 10:36 25.22223 46.78245 9657 ft 284 kts 25°
2026-04-15 10:37 25.23998 46.79207 9914 ft 285 kts 25°
2026-04-15 10:37 25.25779 46.80175 10155 ft 285 kts 25°
2026-04-15 10:37 25.27568 46.81151 10388 ft 287 kts 25°
2026-04-15 10:37 25.29363 46.82133 10614 ft 289 kts 25°
2026-04-15 10:38 25.31173 46.83123 10857 ft 291 kts 25°
2026-04-15 10:38 25.32991 46.84115 11088 ft 292 kts 25°
2026-04-15 10:38 25.34719 46.85323 11326 ft 296 kts 38°
2026-04-15 10:38 25.36178 46.86949 11570 ft 299 kts 46°
2026-04-15 10:39 25.37568 46.88637 11812 ft 301 kts 46°
2026-04-15 10:39 25.38989 46.90346 12057 ft 303 kts 45°
2026-04-15 10:39 25.40424 46.92065 12306 ft 305 kts 45°
2026-04-15 10:39 25.41866 46.93791 12638 ft 303 kts 45°
2026-04-15 10:40 25.43310 46.95516 13528 ft 310 kts 45°
2026-04-15 10:40 25.44793 46.97282 14394 ft 317 kts 45°
2026-04-15 10:40 25.46300 46.99083 15209 ft 320 kts 45°
2026-04-15 10:40 25.47819 47.00904 16061 ft 323 kts 45°
2026-04-15 10:41 25.49353 47.02749 16934 ft 326 kts 45°
2026-04-15 10:41 25.50894 47.04605 17838 ft 329 kts 45°
2026-04-15 10:41 25.52450 47.06478 18697 ft 332 kts 45°
2026-04-15 10:41 25.54020 47.08367 19521 ft 335 kts 45°
2026-04-15 10:42 25.55607 47.10277 20361 ft 338 kts 44°
2026-04-15 10:42 25.57209 47.12202 21224 ft 341 kts 44°
2026-04-15 10:42 25.58823 47.14146 22102 ft 344 kts 44°
2026-04-15 10:42 25.60449 47.16105 23014 ft 346 kts 44°
2026-04-15 10:43 25.62076 47.18075 23908 ft 348 kts 44°
2026-04-15 10:43 25.63707 47.20062 24706 ft 348 kts 44°
2026-04-15 10:43 25.65335 47.22053 25524 ft 348 kts 44°
2026-04-15 10:43 25.66958 47.24042 26366 ft 347 kts 43°
2026-04-15 10:44 25.68552 47.25997 27223 ft 345 kts 43°
2026-04-15 10:44 25.70160 47.27966 28118 ft 343 kts 43°
2026-04-15 10:44 25.71776 47.29940 28709 ft 352 kts 42°
2026-04-15 10:44 25.73482 47.31979 28893 ft 368 kts 39°
2026-04-15 10:45 25.75457 47.33812 28924 ft 376 kts 30°
2026-04-15 10:45 25.77728 47.35387 28926 ft 395 kts 27°
2026-04-15 10:45 25.80136 47.36999 28924 ft 410 kts 27°
2026-04-15 10:46 25.85074 47.40312 28920 ft 419 kts 27°
2026-04-15 10:46 25.90068 47.43693 28919 ft 421 kts 27°
2026-04-15 10:47 25.95070 47.47070 28918 ft 419 kts 27°
2026-04-15 10:47 26.00043 47.50422 28916 ft 417 kts 27°
2026-04-15 10:48 26.05009 47.53776 28916 ft 417 kts 27°
2026-04-15 10:48 26.09936 47.57112 28916 ft 417 kts 27°
2026-04-15 10:49 26.14896 47.60483 28914 ft 420 kts 27°
2026-04-15 10:49 26.19926 47.63892 28910 ft 424 kts 27°
2026-04-15 10:50 26.24760 47.67672 28915 ft 429 kts 39°
2026-04-15 10:50 26.26732 47.70182 28912 ft 433 kts 50°
2026-04-15 10:50 26.28287 47.73072 28912 ft 438 kts 60°
2026-04-15 10:51 26.30080 47.79620 28910 ft 445 kts 73°
2026-04-15 10:51 26.31459 47.86372 28912 ft 448 kts 73°
2026-04-15 10:52 26.32834 47.93114 28907 ft 450 kts 74°
2026-04-15 10:52 26.34187 47.99793 28381 ft 431 kts 74°
2026-04-15 10:52 26.34841 48.03026 27765 ft 426 kts 74°
2026-04-15 10:53 26.35489 48.06227 27132 ft 422 kts 74°
2026-04-15 10:53 26.36133 48.09404 26542 ft 418 kts 74°
2026-04-15 10:53 26.36768 48.12545 25983 ft 413 kts 74°
2026-04-15 10:53 26.37399 48.15656 25429 ft 409 kts 74°
2026-04-15 10:54 26.38022 48.18735 24891 ft 405 kts 74°
2026-04-15 10:54 26.38636 48.21781 24364 ft 401 kts 74°
2026-04-15 10:54 26.39242 48.24800 23840 ft 396 kts 74°
2026-04-15 10:54 26.39840 48.27782 23267 ft 392 kts 74°
2026-04-15 10:55 26.40432 48.30738 22685 ft 388 kts 74°
2026-04-15 10:55 26.41018 48.33668 22121 ft 384 kts 75°
2026-04-15 10:55 26.41598 48.36560 21579 ft 380 kts 75°
2026-04-15 10:55 26.42171 48.39421 21041 ft 376 kts 75°
2026-04-15 10:56 26.42736 48.42220 20513 ft 373 kts 75°
2026-04-15 10:56 26.43308 48.45062 19989 ft 369 kts 75°
2026-04-15 10:56 26.43859 48.47809 19475 ft 366 kts 75°
2026-04-15 10:56 26.44409 48.50566 18971 ft 363 kts 76°
2026-04-15 10:57 26.44953 48.53303 18491 ft 359 kts 76°
2026-04-15 10:57 26.46021 48.58709 17425 ft 354 kts 76°
2026-04-15 10:57 26.46551 48.61377 16891 ft 351 kts 76°
2026-04-15 10:58 26.47060 48.64036 16378 ft 349 kts 79°
2026-04-15 10:58 26.47307 48.66728 15881 ft 348 kts 86°
2026-04-15 10:58 26.47219 48.69421 15394 ft 347 kts 95°
2026-04-15 10:58 26.46907 48.72084 14914 ft 345 kts 96°
2026-04-15 10:59 26.46595 48.74730 14444 ft 343 kts 96°
2026-04-15 10:59 26.46291 48.77362 13959 ft 341 kts 96°
2026-04-15 10:59 26.45991 48.79980 13449 ft 339 kts 96°
2026-04-15 10:59 26.45694 48.82577 12944 ft 336 kts 96°
2026-04-15 11:00 26.45398 48.85154 12650 ft 336 kts 96°
2026-04-15 11:00 26.45099 48.87737 12298 ft 335 kts 95°
2026-04-15 11:00 26.44801 48.90303 11952 ft 333 kts 95°
2026-04-15 11:00 26.44504 48.92864 11543 ft 331 kts 95°
2026-04-15 11:01 26.44212 48.95369 11043 ft 328 kts 95°
2026-04-15 11:01 26.43914 48.97918 10553 ft 326 kts 94°
2026-04-15 11:01 26.43624 49.00388 10311 ft 326 kts 94°
2026-04-15 11:01 26.43330 49.02892 10083 ft 325 kts 94°
2026-04-15 11:02 26.43039 49.05364 9847 ft 315 kts 94°
2026-04-15 11:02 26.42757 49.07741 9760 ft 304 kts 94°
2026-04-15 11:02 26.42483 49.10070 9781 ft 302 kts 94°
2026-04-15 11:02 26.42212 49.12388 9780 ft 301 kts 94°
2026-04-15 11:03 26.41940 49.14703 9780 ft 301 kts 94°
2026-04-15 11:03 26.41667 49.17020 9775 ft 301 kts 94°
2026-04-15 11:03 26.41397 49.19302 9770 ft 301 kts 94°
2026-04-15 11:03 26.41120 49.21613 9773 ft 301 kts 94°
2026-04-15 11:04 26.40844 49.23924 9780 ft 301 kts 94°
2026-04-15 11:04 26.40570 49.26237 9777 ft 300 kts 94°
2026-04-15 11:04 26.40297 49.28547 9775 ft 300 kts 94°
2026-04-15 11:04 26.40023 49.30855 9780 ft 300 kts 94°
2026-04-15 11:05 26.39752 49.33163 9776 ft 300 kts 94°
2026-04-15 11:05 26.39481 49.35466 9776 ft 300 kts 94°
2026-04-15 11:05 26.39208 49.37783 9423 ft 301 kts 94°
2026-04-15 11:05 26.38933 49.40094 8889 ft 300 kts 94°
2026-04-15 11:06 26.38654 49.42402 8368 ft 299 kts 94°
2026-04-15 11:06 26.38376 49.44679 7969 ft 294 kts 94°
2026-04-15 11:06 26.38100 49.46932 7501 ft 292 kts 94°
2026-04-15 11:06 26.37825 49.49171 7095 ft 290 kts 93°
2026-04-15 11:07 26.37553 49.51403 6991 ft 291 kts 93°
2026-04-15 11:07 26.37280 49.53646 7004 ft 293 kts 94°
2026-04-15 11:07 26.36747 49.55859 7010 ft 299 kts 108°
2026-04-15 11:07 26.35737 49.57899 7005 ft 303 kts 123°
2026-04-15 11:08 26.34461 49.59736 7004 ft 290 kts 125°
2026-04-15 11:08 26.33262 49.61450 6938 ft 273 kts 125°
2026-04-15 11:08 26.32125 49.63082 6822 ft 262 kts 124°
2026-04-15 11:08 26.31389 49.64145 6746 ft 260 kts 124°
2026-04-15 11:09 26.29876 49.66340 5758 ft 281 kts 125°
2026-04-15 11:09 26.28658 49.68109 4939 ft 294 kts 126°
2026-04-15 11:09 26.27390 49.69947 4241 ft 300 kts 126°
2026-04-15 11:09 26.26539 49.71178 4080 ft 291 kts 126°
2026-04-15 11:10 26.25295 49.73636 3981 ft 261 kts 103°
2026-04-15 11:10 26.25076 49.74929 3988 ft 243 kts 89°
2026-04-15 11:10 26.25194 49.76745 3987 ft 231 kts 71°
2026-04-15 11:10 26.25632 49.78456 3988 ft 229 kts 69°
2026-04-15 11:11 26.26070 49.80141 3985 ft 229 kts 69°
2026-04-15 11:11 26.26528 49.81901 3441 ft 241 kts 70°
2026-04-15 11:11 26.26989 49.83680 3085 ft 238 kts 70°
2026-04-15 11:11 26.27516 49.85365 2980 ft 223 kts 52°
2026-04-15 11:12 26.28666 49.86343 2984 ft 208 kts 10°
2026-04-15 11:12 26.30068 49.86206 2970 ft 206 kts 341°
2026-04-15 11:12 26.31452 49.85746 2793 ft 207 kts 342°
2026-04-15 11:12 26.32822 49.85317 2566 ft 197 kts 342°
2026-04-15 11:13 26.34072 49.84933 2328 ft 174 kts 342°
2026-04-15 11:13 26.35173 49.84594 2110 ft 160 kts 342°
2026-04-15 11:13 26.36231 49.84268 1904 ft 156 kts 343°
2026-04-15 11:13 26.37256 49.83952 1697 ft 151 kts 345°
2026-04-15 11:14 26.38266 49.83640 1496 ft 151 kts 342°
2026-04-15 11:14 26.39273 49.83330 1307 ft 149 kts 343°
2026-04-15 11:14 26.40273 49.83022 1112 ft 149 kts 343°
2026-04-15 11:14 26.41279 49.82711 922 ft 150 kts 345°
2026-04-15 11:15 26.42279 49.82405 720 ft 148 kts 346°
2026-04-15 11:15 26.43273 49.82090 471 ft 150 kts 345°
2026-04-15 11:15 26.44288 49.81781 298 ft 152 kts 346°
2026-04-15 11:15 26.45290 49.81472 142 ft 148 kts 343°
2026-04-15 11:16 26.46216 49.81187 90 ft 121 kts 344°
2026-04-15 11:16 26.46875 49.80980 88 ft 80 kts 344°
2026-04-15 11:16 26.47342 49.80838 87 ft 60 kts 345°
2026-04-15 11:16 26.47594 49.80727 89 ft 31 kts 328°
2026-04-15 11:17 26.47745 49.80572 88 ft 23 kts 314°
2026-04-15 11:17 26.47808 49.80500 89 ft 15 kts 314°
2026-04-15 11:17 26.47843 49.80401 87 ft 12 kts 261°
2026-04-15 11:17 26.47811 49.80254 85 ft 26 kts 256°
2026-04-15 11:18 26.47767 49.80088 85 ft 24 kts 256°
2026-04-15 11:18 26.47731 49.79936 92 ft 20 kts 255°
2026-04-15 11:18 26.47690 49.79772 94 ft 24 kts 254°
2026-04-15 11:18 26.47642 49.79583 96 ft 25 kts 254°
2026-04-15 11:19 26.47608 49.79448 94 ft 7 kts 254°
2026-04-15 11:19 26.47587 49.79366 92 ft 16 kts 253°
2026-04-15 11:19 26.47560 49.79254 90 ft 15 kts 255°
2026-04-15 11:19 26.47542 49.79183 89 ft 0 kts 255°
2026-04-15 11:20 26.47542 49.79182 89 ft 0 kts 255°
2026-04-15 11:20 26.47540 49.79176 87 ft 1 kts 255°
2026-04-15 11:20 26.47537 49.79163 86 ft 2 kts 255°
2026-04-15 11:21 26.47532 49.79143 88 ft 3 kts 249°
2026-04-15 11:21 26.47515 49.79125 87 ft 4 kts 215°
2026-04-15 11:21 26.47486 49.79117 85 ft 5 kts 181°
2026-04-15 11:21 26.47447 49.79126 88 ft 7 kts 165°
2026-04-15 11:22 26.47400 49.79140 87 ft 7 kts 164°
2026-04-15 11:22 26.47345 49.79158 88 ft 8 kts 163°
2026-04-15 11:22 26.47297 49.79180 88 ft 8 kts 154°
2026-04-15 11:22 26.47242 49.79210 85 ft 9 kts 154°
2026-04-15 11:23 26.47181 49.79242 87 ft 10 kts 154°
2026-04-15 11:23 26.47132 49.79272 85 ft 7 kts 136°
2026-04-15 11:23 26.47130 49.79317 87 ft 6 kts 69°
2026-04-15 11:23 26.47143 49.79348 87 ft 0 kts 64°
2026-04-15 11:24 26.47146 49.79355 87 ft 2 kts 63°
2026-04-15 11:24 26.47149 49.79360 87 ft 0 kts 62°